Torna al catalogo

STARLINK-35504

AttivoComunicazioniVLEO
NORAD 66325·PAYLOAD·🇺🇸 United States

Lanciato Nov 6, 2025 da Cape Canaveral Space Force Station

Loading…

Prossimi Passaggi (prossime 24 ore)

TLE

AggiornatoSource: CelesTrak SupGP

Epoca: Sep 14, 2026, 15:51 UTC

1 66325C 25253G   26257.66090278 -.00024182  00000+0 -87608-3 0  2576
2 66325  42.9999 225.6743 0001097 266.0899 351.7625 15.27583485    10

Traccia STARLINK-35504 in tempo reale con AllMySat

Download on the App Store